Lapse_Rate
6.2 6.1 6.1 5.9 5.9 5.9 5.8 5.7 5.6 5.7 5.9 6.2 6.5 6.6 6.8 6.9 7.0 7.1 7.2 7.2 7.1 7.0 7.1 6.8 6.6 6.5 6.5 6.5 6.6 6.5 6.6 6.5 6.4 6.4 6.3 6.2 6.2 6.1 6.1 6.1 6.2 6.2 6.2
6.2 6.1 6.1 5.9 5.8 5.8 5.8 5.7 5.7 5.8 5.8 5.9 6.1 6.3 6.6 6.9 6.9 7.0 7.1 7.0 7.0 6.9 6.8 6.7 6.7 6.5 6.4 6.6 6.6 6.6 6.5 6.4 6.4 6.3 6.2 6.2 6.1 6.1 6.0 6.1 6.3 6.3 6.3
6.3 6.0 6.0 5.9 5.8 5.8 5.7 5.7 5.6 5.7 5.7 5.8 6.0 6.2 6.4 6.6 6.7 6.9 7.0 7.0 6.9 6.8 6.7 6.7 6.7 6.6 6.6 6.6 6.5 6.4 6.4 6.3 6.2 6.2 6.2 6.2 6.0 6.1 6.1 6.2 6.3 6.3 6.3
6.3 6.1 6.0 6.0 5.9 5.7 5.7 5.6 5.6 5.6 5.7 5.7 5.9 6.0 6.2 6.3 6.5 6.7 6.7 6.7 6.8 6.7 6.7 6.7 6.6 6.5 6.5 6.5 6.5 6.4 6.3 6.2 6.0 6.0 6.1 6.0 6.1 6.0 5.9 6.0 6.0 6.0 6.1
6.6 6.2 6.1 5.9 6.0 5.8 5.8 5.7 5.6 5.7 5.7 5.7 5.8 5.9 6.0 6.2 6.2 6.3 6.4 6.6 6.6 6.5 6.5 6.5 6.5 6.5 6.4 6.4 6.4 6.3 6.3 6.2 6.0 5.8 5.9 5.9 5.8 5.9 6.0 5.7 6.0 6.2 6.2
6.8 6.5 6.1 6.0 5.9 5.9 5.9 5.9 5.8 5.8 5.8 5.8 5.8 5.9 5.9 6.0 6.1 6.0 6.1 6.2 6.3 6.4 6.4 6.4 6.4 6.4 6.3 6.4 6.4 6.4 6.3 6.2 6.2 6.1 6.1 6.0 5.9 5.8 5.8 6.0 6.1 6.1 6.1
6.7 6.6 6.3 6.1 6.0 5.9 5.9 5.7 5.9 5.8 5.8 5.8 5.8 5.8 5.9 5.9 6.0 6.0 6.0 6.0 6.0 6.0 6.1 6.2 6.2 6.3 6.3 6.3 6.2 6.3 6.3 6.3 6.4 6.3 6.1 6.1 6.1 6.0 6.0 6.0 6.0 6.0 6.0
6.7 6.6 6.5 6.4 6.1 5.8 5.8 5.8 5.7 5.9 5.8 5.8 5.9 6.0 6.0 6.1 6.2 6.1 6.0 6.0 5.9 6.0 6.0 6.1 6.1 6.2 6.3 6.3 6.3 6.3 6.4 6.4 6.4 6.5 6.4 6.3 6.1 6.3 6.1 6.0 5.9 6.0 6.0
6.8 6.7 6.6 6.6 6.4 6.0 5.9 6.0 5.8 5.9 5.8 5.7 6.1 6.2 6.2 6.2 6.3 6.3 6.3 6.2 6.1 6.1 6.1 6.1 6.1 6.2 6.2 6.3 6.4 6.4 6.5 6.5 6.6 6.7 6.7 6.6 6.8 6.5 6.4 6.3 6.3 6.3 6.3
6.8 6.8 6.7 6.5 6.5 6.5 6.3 6.2 5.9 5.9 5.9 5.7 6.1 6.3 6.4 6.5 6.5 6.5 6.5 6.5 6.5 6.4 6.4 6.5 6.5 6.5 6.6 6.6 6.6 6.5 6.6 6.7 6.7 6.7 6.7 6.6 6.5 6.4 6.4 6.4 6.4 6.4 6.4
6.8 6.7 6.7 6.6 6.5 6.5 6.5 6.4 6.3 6.2 6.1 6.3 6.3 6.3 6.4 6.5 6.6 6.7 6.7 6.7 6.8 6.7 6.7 6.8 6.8 6.7 6.8 6.8 6.8 6.8 6.7 6.7 6.6 6.7 6.7 6.7 6.6 6.7 6.7 6.6 6.6 6.6 6.6
6.7 6.8 6.7 6.6 6.5 6.5 6.4 6.4 6.4 6.3 6.3 6.4 6.4 6.4 6.4 6.5 6.6 6.6 6.6 6.7 6.8 6.9 6.9 7.0 7.0 7.0 6.9 6.9 6.8 6.7 6.7 6.8 6.9 6.9 6.8 6.9 6.8 6.8 6.8 6.8 6.8 6.8 6.8
6.7 6.8 6.7 6.7 6.6 6.5 6.5 6.4 6.3 6.4 6.4 6.4 6.4 6.5 6.5 6.6 6.7 6.7 6.7 6.8 6.9 7.0 7.0 6.9 6.9 6.9 6.9 6.9 6.9 6.8 6.8 6.8 6.9 7.0 7.0 7.0 7.0 7.0 7.0 6.9 6.8 6.8 6.8
6.7 6.7 6.7 6.8 6.7 6.6 6.5 6.5 6.5 6.5 6.5 6.6 6.6 6.6 6.7 6.7 6.7 6.7 6.8 6.9 7.0 7.0 7.1 7.1 7.1 7.1 7.1 7.0 7.0 6.9 6.9 6.8 6.9 6.9 6.9 6.9 6.9 6.9 6.8 6.7 6.7 6.6 6.6
6.8 6.8 6.8 6.7 6.7 6.7 6.6 6.6 6.6 6.6 6.6 6.6 6.7 6.7 6.7 6.7 6.8 6.9 6.9 6.9 7.0 7.0 7.1 7.2 7.1 7.1 7.1 7.1 7.1 7.1 7.1 7.1 7.0 7.0 7.0 6.9 6.8 6.8 6.6 6.6 6.6 6.5 6.4
6.8 6.7 6.7 6.7 6.7 6.7 6.7 6.7 6.7 6.7 6.7 6.7 6.7 6.6 6.6 6.7 6.7 6.8 6.8 6.9 6.9 7.0 7.0 7.1 7.1 7.1 7.1 7.1 7.1 7.0 7.0 7.0 6.9 6.9 6.8 6.8 6.8 6.7 6.6 6.5 6.4 6.3 6.3
6.8 6.8 6.8 6.8 6.7 6.7 6.7 6.8 6.7 6.7 6.7 6.7 6.6 6.6 6.7 6.6 6.7 6.8 6.8 6.9 6.9 6.9 7.0 7.0 7.1 7.0 7.0 7.0 7.0 7.0 6.9 6.9 6.8 6.7 6.6 6.6 6.5 6.4 6.4 6.3 6.3 6.2 6.2
7.0 6.9 6.8 6.9 6.8 6.8 6.8 6.8 6.8 6.8 6.8 6.7 6.8 6.9 6.9 6.8 6.8 6.8 6.9 6.9 6.9 6.9 6.9 6.9 6.9 6.9 6.9 6.9 6.8 6.8 6.8 6.7 6.6 6.6 6.5 6.5 6.4 6.4 6.4 6.3 6.2 6.2 6.2
7.0 6.9 6.8 6.8 6.8 6.8 6.9 6.9 6.8 6.8 6.8 6.9 7.0 7.0 7.0 7.0 6.9 6.9 6.8 6.8 6.7 6.7 6.8 6.9 6.9 6.8 6.8 6.7 6.7 6.7 6.7 6.6 6.5 6.4 6.4 6.4 6.3 6.3 6.3 6.3 6.1 6.1 6.1
7.1 7.0 6.9 6.8 6.9 6.9 7.0 7.0 6.9 6.9 7.0 7.0 7.0 7.0 6.9 7.0 7.0 7.0 7.0 7.0 6.9 6.8 6.8 6.7 6.6 6.6 6.5 6.6 6.6 6.5 6.6 6.6 6.5 6.5 6.4 6.4 6.3 6.3 6.2 6.2 6.2 6.2 6.2
7.1 7.0 7.0 6.9 6.9 6.9 6.9 6.8 6.8 6.9 7.0 7.0 7.0 7.0 6.9 6.9 7.0 6.9 6.9 6.7 6.7 6.5 6.4 6.3 6.3 6.4 6.3 6.3 6.4 6.4 6.4 6.4 6.4 6.4 6.4 6.4 6.4 6.4 6.3 6.3 6.2 6.2 6.3
7.1 7.0 6.9 6.8 6.8 6.8 6.7 6.7 6.9 6.9 6.9 6.8 6.8 6.8 6.8 6.8 6.7 6.7 6.7 6.6 6.4 6.2 6.2 6.2 6.2 6.2 6.2 6.2 6.2 6.3 6.5 6.3 6.6 6.3 6.3 6.3 6.2 6.2 6.1 6.1 6.1 6.1 6.1
7.1 7.0 7.0 6.8 6.8 6.7 6.7 6.8 6.8 6.8 6.6 6.6 6.7 6.6 6.5 6.5 6.4 6.3 6.2 6.2 6.0 6.0 6.0 6.0 6.1 6.1 6.2 6.2 6.2 6.1 6.2 6.2 6.3 6.3 6.4 6.1 6.0 5.8 5.8 5.8 5.9 5.9 5.9
7.1 7.0 6.9 6.9 6.8 6.8 6.7 6.6 6.6 6.5 6.4 6.6 6.4 6.3 6.3 6.2 6.1 6.1 6.0 6.0 5.9 5.9 5.9 5.9 5.9 5.9 6.0 6.0 6.1 6.2 6.0 6.0 6.1 6.4 6.3 6.3 6.3 6.2 5.9 5.9 6.0 6.1 6.1
7.0 6.9 6.8 6.7 6.8 6.7 6.6 6.5 6.4 6.3 6.5 6.5 6.3 6.0 6.0 5.9 5.9 5.8 5.8 5.9 5.9 5.9 5.9 6.0 6.1 6.2 6.2 6.3 6.3 6.2 6.3 6.2 6.0 5.8 6.1 6.4 5.9 6.2 6.4 6.5 6.2 6.1 6.1
7.1 6.9 6.8 6.8 6.7 6.7 6.6 6.5 6.3 6.4 6.2 6.1 6.0 5.9 5.9 6.0 6.0 6.0 6.0 6.0 6.0 6.1 6.1 6.1 6.2 6.2 6.3 6.3 6.3 6.3 6.1 6.1 6.0 5.8 5.8 6.1 6.1 6.3 6.2 5.9 6.4 6.5 6.0
Wind_Speed
10 16 13 11 10 11 11 14 13 13 13 15 17 15 18 19 18 18 19 19 19 18 18 18 19 20 19 19 19 17 17 17 17 19 20 17 17 18 18 17 19 18 17
13 17 13 12 11 11 13 15 12 13 14 15 16 15 16 18 17 18 17 17 18 18 18 19 19 18 18 17 17 16 15 12 10 12 19 20 17 17 18 19 18 17 17
13 18 14 11 13 12 13 14 13 13 13 15 14 15 16 17 16 16 17 17 17 18 17 18 18 17 17 17 16 15 12 8 5 4 8 16 15 15 16 15 16 16 17
13 15 16 12 13 13 13 14 14 13 13 13 14 14 15 15 15 16 16 16 16 17 17 16 16 16 16 16 16 14 10 7 6 1 10 12 15 14 14 15 15 14 17
12 13 18 13 13 12 13 13 13 14 13 14 14 14 14 15 15 15 16 16 16 16 16 15 15 15 15 16 15 12 9 9 9 12 17 14 15 14 16 15 16 16 16
11 15 14 14 13 13 13 13 13 14 13 13 13 13 14 14 14 15 15 15 15 15 15 15 14 14 14 14 14 12 10 13 9 14 17 17 16 16 17 17 16 16 16
11 17 14 13 13 13 12 12 13 13 13 13 12 12 13 13 13 14 15 14 14 14 14 14 13 13 13 13 12 10 10 14 10 17 14 14 14 15 16 16 15 15 14
11 14 15 13 13 12 12 11 12 13 13 13 12 12 12 12 12 13 13 12 12 12 12 13 13 13 11 10 10 9 9 10 12 12 13 14 12 15 15 14 13 13 13
12 11 14 13 13 11 12 11 11 13 12 12 13 12 11 11 11 12 11 11 12 12 12 12 11 11 11 10 8 8 7 10 10 15 11 13 12 14 13 12 11 11 11
10 10 13 14 13 13 12 11 11 10 10 12 13 12 12 11 9 9 13 10 11 11 11 10 10 9 10 10 7 4 3 8 8 13 12 11 12 10 10 9 9 9 8
9 10 10 11 13 13 14 12 13 12 12 14 11 8 9 5 7 10 12 9 10 10 10 8 7 5 7 9 5 2 7 5 5 6 12 8 8 8 8 8 8 8 8
12 11 9 9 10 10 11 12 12 10 10 9 11 8 3 3 8 11 8 7 7 7 8 6 3 2 8 1 4 5 4 4 4 5 8 6 6 6 7 7 8 8 8
11 6 5 9 10 10 9 8 9 10 8 6 7 4 5 5 8 10 11 8 7 4 2 3 1 4 4 6 4 3 3 4 3 2 7 6 6 5 6 6 7 7 7
8 10 7 9 7 9 9 7 7 6 7 7 6 5 6 4 2 3 3 3 3 2 1 3 3 3 3 3 4 5 5 4 4 3 9 4 5 4 4 4 5 5 5
12 9 10 10 10 8 8 8 6 6 6 6 6 7 3 3 3 3 2 1 1 1 3 3 3 5 5 6 5 5 5 5 5 4 3 5 1 1 2 3 5 5 5
13 12 11 12 11 11 8 7 6 6 6 6 6 8 6 4 4 2 2 1 1 2 3 4 6 6 5 5 7 6 7 7 7 6 5 3 4 2 2 3 4 5 5
14 14 14 13 12 10 9 9 7 7 7 7 6 5 5 5 4 3 3 2 1 1 4 4 4 4 4 4 5 5 6 7 7 7 7 7 4 7 4 3 4 4 5
14 15 15 12 12 11 9 10 9 8 8 7 7 7 7 6 3 3 1 2 1 3 4 4 3 4 3 4 4 4 5 7 8 9 8 7 7 5 8 6 3 3 4
14 15 15 14 13 12 11 10 9 9 7 7 7 7 8 5 4 3 2 1 2 3 3 3 3 2 4 4 4 4 5 4 7 9 8 9 8 5 8 9 5 6 5
13 14 15 13 14 13 8 8 7 6 7 7 7 7 7 6 5 3 0 2 2 2 3 2 3 3 3 4 6 6 5 5 6 6 7 9 9 8 9 9 8 9 10
12 14 15 15 14 10 8 8 7 7 6 5 5 4 5 3 2 0 1 2 2 3 4 4 4 5 4 3 5 4 5 6 5 4 6 7 8 9 9 9 9 9 10
12 13 14 15 14 12 8 7 6 6 6 6 5 4 4 4 3 1 2 2 4 4 4 4 4 4 4 2 4 5 3 2 2 3 3 4 5 7 7 10 11 11 10
9 12 13 14 14 13 11 6 4 5 5 4 5 5 5 4 3 2 4 5 5 4 4 4 4 5 5 5 2 3 4 3 8 1 4 3 5 4 7 10 12 12 12
1 5 11 12 12 12 11 9 11 7 7 5 6 5 5 5 6 4 3 2 1 3 4 4 4 4 4 5 5 3 4 6 3 5 0 3 5 6 6 7 10 12 14
2 1 8 11 11 12 12 11 8 4 6 6 6 8 6 7 8 6 3 2 2 2 3 3 3 4 3 3 4 5 6 5 6 6 8 6 5 4 5 5 10 11 14
4 5 7 9 9 4 7 6 6 9 9 6 5 5 4 4 3 6 3 4 5 5 5 5 6 6 5 5 4 5 6 5 6 6 8 10 10 8 7 4 5 9 14
Wind_Direction
140 127 139 131 128 124 114 111 107 97 85 89 87 83 85 82 80 75 69 66 71 67 72 79 76 74 72 70 70 70 70 73 79 80 75 70 72 68 61 54 68 68 66
139 135 140 134 128 117 105 111 103 96 89 82 87 87 81 80 80 78 75 71 70 70 72 73 72 71 70 69 70 71 69 69 80 96 99 84 71 74 66 60 61 65 63
135 127 143 135 125 120 112 115 106 96 101 101 93 89 89 87 85 82 81 78 76 71 70 75 72 70 69 70 71 72 73 66 45 81 74 84 80 79 74 65 66 64 67
134 141 133 134 125 120 119 119 114 106 100 100 99 94 89 88 88 85 82 80 79 76 75 73 72 70 68 68 66 65 60 32 356 313 84 78 83 73 77 74 65 70 73
132 132 117 138 132 124 125 123 124 117 111 103 98 97 95 94 92 90 85 81 77 76 75 73 72 71 68 66 65 59 34 0 335 71 64 52 67 66 64 63 68 65 65
134 114 124 136 133 130 122 130 127 123 116 109 104 100 98 97 95 91 87 82 76 74 72 72 71 71 71 69 62 50 21 359 31 70 94 69 65 70 68 65 63 61 59
137 119 138 141 139 134 130 131 130 130 122 115 108 105 103 100 97 93 87 81 74 72 72 73 71 69 69 68 63 45 17 1 64 57 69 71 69 70 66 64 61 59 56
137 140 136 131 139 137 136 137 136 131 127 119 112 108 104 101 98 93 87 84 79 77 76 74 70 67 74 78 67 43 15 354 72 69 60 72 68 69 66 61 57 56 54
141 147 142 145 139 138 136 131 135 130 128 120 111 104 100 96 93 91 85 78 77 74 72 76 72 72 79 84 79 59 26 2 60 75 62 62 57 59 55 53 50 49 45
153 158 153 147 158 149 139 128 116 118 119 118 110 111 115 108 108 116 108 77 78 79 75 78 76 78 81 79 71 52 329 308 73 94 73 52 55 61 59 51 46 43 42
161 164 155 157 159 146 136 124 116 114 115 123 117 134 164 138 139 107 79 84 79 79 74 72 76 87 108 99 77 311 284 19 62 68 74 41 61 62 59 53 45 38 35
167 166 165 170 159 146 134 160 152 146 156 158 144 180 139 126 54 101 109 114 103 106 110 104 107 201 223 89 129 247 354 18 30 44 82 40 51 53 50 42 33 26 26
166 139 192 170 168 161 168 156 159 170 140 162 155 152 129 136 173 185 157 165 165 196 180 203 14 20 17 0 9 23 12 338 15 34 90 39 29 30 34 28 22 20 23
179 166 186 205 153 187 158 196 169 176 171 164 156 153 170 145 152 156 126 159 184 31 14 3 9 15 344 343 346 338 333 341 340 343 122 90 22 13 12 13 13 12 13
184 178 183 217 174 183 184 196 173 166 192 171 162 164 208 154 163 170 134 169 28 7 6 7 346 338 337 347 322 322 316 315 311 320 337 134 119 341 341 349 353 353 353
183 184 185 207 189 177 189 176 180 174 175 171 175 177 188 186 188 198 156 130 24 348 1 352 352 342 330 334 327 329 322 316 312 304 297 184 171 224 286 318 330 330 329
183 180 182 189 190 179 189 178 180 186 177 181 180 182 196 187 190 221 198 227 282 332 322 316 315 310 309 319 302 304 293 289 282 270 267 277 182 207 232 286 308 313 313
180 178 177 179 183 184 187 181 180 175 192 185 177 177 189 189 200 201 260 246 234 266 303 304 335 327 315 317 311 308 297 280 271 272 271 259 256 266 198 215 255 288 296
183 180 176 179 182 183 182 181 178 174 188 185 184 184 178 184 189 231 223 212 233 277 289 324 309 320 315 315 303 298 288 281 278 270 263 259 254 256 269 183 220 252 268
192 183 181 180 182 180 175 179 180 176 191 189 196 193 176 190 196 237 311 5 325 300 292 280 293 315 311 310 308 300 274 257 253 263 268 262 247 240 240 251 198 231 230
204 192 187 183 182 179 180 184 180 185 186 187 201 194 192 185 167 245 9 354 327 319 329 330 324 310 313 335 300 299 293 242 244 247 249 255 259 243 241 243 240 247 219
219 204 191 188 184 184 180 185 185 184 173 179 154 151 135 128 127 71 2 357 352 334 319 316 320 317 316 336 320 298 309 319 201 239 276 280 271 262 246 250 249 248 253
212 204 201 191 186 182 181 168 156 118 138 136 147 136 138 135 124 88 49 18 1 344 325 333 328 321 320 331 335 321 315 338 347 210 238 245 257 258 256 248 245 251 255
209 254 204 194 187 182 177 165 174 172 165 157 146 124 105 79 82 66 56 31 304 328 329 327 346 329 320 305 319 225 259 297 302 309 166 237 229 252 267 262 255 251 250
111 272 207 189 184 184 180 181 180 149 117 133 124 110 99 84 70 72 49 11 336 325 326 306 304 300 288 282 290 298 287 262 259 257 291 294 308 233 231 242 265 259 242
80 65 65 73 45 86 171 176 156 121 123 111 97 94 84 85 91 60 29 16 348 347 336 327 322 301 285 274 260 265 273 276 285 277 268 274 277 273 271 247 238 245 252